Location: Beetenbrück
(52.8113°N, 9.5946°E)
Time: 22:12:47
(UTC+00:00)

CZ-4B R/B - Pass Details

Date: 14 April 2026
Orbit: 699 x 798 km, 98.9° (Epoch: 12 May)

Event Time Altitude Azimuth Distance (km) Brightness Sun altitude
Exits shadow 19:53:39 20° 126° (SE) 1,623 4.5 -13.5°
Maximum altitude 19:56:35 43° 65° (ENE) 1,007 3.9 -13.8°
Drops below altitude 10° 20:01:06 10° 355° (N) 2,189 6.5 -14.4°
Sets 20:03:25 0° 349° (NNW) 3,106 7.5 -14.6°
